Preview of NWS' New Version of Forecast
This preview is not operational and should not be used for support decisions.
Latest weather observations around

Vaiden Fld Airport (KA08)

Using International System of Units (Switch to English Units)
Date/ Time (CST) Wind (kph) Vis. (km) Weather Sky Cond. Temp (°C) Rel. Humidity Wind Chill (°C) Heat Index (°C) Pressure Precip. (cm)
Air Dwpt 6 hour Altimeter (hPa) Sea level (hPa) 1 hr 3 hr 6 hr
Max Min
Notice The following observation data may not be complete
Jan 21 22:15   16.09 Clear CLR          %              
Jan 21 21:55 ESE 5 16.09 Clear CLR 0 -4     72% -1   1027.4        
Jan 21 21:35 SSE 5 16.09 Clear CLR 0 -5     68% -2   1027.4        
Jan 21 21:15 Calm 16.09 Clear CLR 1 -5     66%     1027.4        
Jan 21 20:55 Calm 16.09 Clear CLR 1 -4     67%     1027.8        
Jan 21 20:35 Calm 16.09 Clear CLR 2 -4     69%     1027.8        
Jan 21 20:15 Calm 16.09 Clear CLR 2 -5     62%     1027.8        
Jan 21 19:55 Calm 16.09 Clear CLR 3 -4     62%     1027.8        
Jan 21 19:35 Calm 16.09 Clear CLR 3 -4     61%     1027.8        
Jan 21 19:15 E 5 16.09 Clear CLR 3 -3     62% 2   1027.4        
Jan 21 18:55 E 5 16.09 Clear CLR 3 -3     63% 2   1027.4        
Jan 21 18:35 ESE 5 16.09 Clear CLR 3 -3     67% 2   1027.4        
Jan 21 18:15 E 5 16.09 Clear CLR 3 -2     69% 2   1027.4        
Jan 21 17:55 Calm 16.09 Clear CLR 5 -2     63%     1027.8        
Jan 21 17:35 Calm 16.09 Clear CLR 6 -4     49%     1027.8        
Jan 21 17:15 Calm 16.09 Clear CLR 7 -4     46%     1028.1        
Jan 21 16:55 Calm 16.09 Clear CLR 8 -4     42%     1028.1        
Jan 21 16:35 Calm 16.09 Clear CLR 9 -3     41%     1028.1        
Jan 21 16:15 Calm 16.09 Clear CLR 10 -4     38%     1028.1        
Jan 21 15:55 SSE 8 16.09 Clear CLR 11 -4     36%     1027.8        
Jan 21 15:35 Calm 16.09 Clear CLR 11 -4     34%     1028.1        
Jan 21 15:15 NNE 8 16.09 Clear CLR 11 -4     35%     1028.1        
Jan 21 14:55 Calm 16.09 Clear CLR 12 -4     34%     1028.5        
Jan 21 14:35 SE 8 16.09 Clear CLR 11 -4     34%     1028.5        
Jan 21 14:15 SE 8 16.09 Clear CLR 11 -3     38%     1028.5        
Jan 21 13:50 NNW 8 16.09 Clear CLR 9 -4     42% 7   1029.1        
Jan 21 13:15 Calm 16.09 Clear CLR 9 -4     40%     1029.1        
Jan 21 12:55 NNE 5 16.09 Clear CLR 8 -4     42% 8   1029.8        
Jan 21 12:35 Calm 16.09 Clear CLR 7 -5     43%     1030.1        
Jan 21 12:15 Calm 16.09 Clear CLR 8 -4     43%     1030.5        
Jan 21 11:55 N 5 16.09 Clear CLR 7 -4     46% 6   1030.8        
Jan 21 11:30 ESE 5 16.09 Clear CLR 7 -4     45% 6   1031.5        
Jan 21 11:15 Calm 16.09 Clear CLR 6 -5     48%     1031.5        
Jan 21 10:55 NNW 5 16.09 Clear CLR 5 -5     51% 4   1031.5        
Jan 21 10:35 NNE 8 16.09 Clear CLR 4 -5     55% 2   1031.5        
Jan 21 10:15 NNE 13 16.09 Clear CLR 3 -5     55% 0   1031.5        
Jan 21 09:55 ENE 9 16.09 Clear CLR 2 -5     60% -1   1031.5        
Jan 21 09:35 ENE 11 16.09 Clear CLR 2 -6     59% -2   1031.2        
Jan 21 09:15 ENE 11 16.09 Clear CLR 1 -6     61% -3   1031.2        
Jan 21 08:55 ENE 11 16.09 Clear CLR 0 -7     61% -4   1031.2        
Jan 21 08:35 ENE 8 16.09 Clear CLR 0 -6     65% -3   1031.2        
Jan 21 08:15 NE 9 16.09 Clear CLR 0 -5     69% -3   1030.8        
Jan 21 07:55 N 9 16.09 Clear CLR -1 -5     73% -5   1030.5        
Jan 21 07:35 N 8 16.09 Clear CLR -2 -6     75% -5   1030.5        
Jan 21 07:15 N 5 16.09 Clear CLR -3 -5     82% -5   1030.1        
Jan 21 06:55 NNE 8 16.09 Clear CLR -3 -5     85% -6   1029.5        
Jan 21 06:35 N 5 16.09 Clear CLR -3 -5     88% -6   1029.1        
Jan 21 06:15 Calm 16.09 Clear CLR -4 -5     89%     1028.8        
Jan 21 05:55 NNW 5 16.09 Clear CLR -4 -6     88% -6   1028.5        
Jan 21 05:35 Calm 16.09 Clear CLR -4 -6     85%     1028.1        
Jan 21 05:15 W 11 16.09 Clear CLR -3 -5     86% -8   1027.8        
Jan 21 04:55 Calm 16.09 Clear CLR -3 -5     86%     1027.4        
Jan 21 04:35 NNW 5 16.09 Clear CLR -3 -5     86% -5   1027.1        
Jan 21 04:15 NNW 8 16.09 Clear CLR -3 -5     89% -6   1027.1        
Jan 21 03:55 N 8 16.09 Clear CLR -3 -5     89% -6   1027.1        
Jan 21 03:35 NNW 5 16.09 Clear CLR -3 -5     85% -5   1027.1        
Jan 21 03:15 NW 8 16.09 Clear CLR -3 -6     80% -6   1027.1        
Jan 21 02:55 Calm 16.09 Clear CLR -3 -6     81%     1027.1        
Jan 21 02:35 Calm 16.09 Clear CLR -3 -6     80%     1027.1        
Jan 21 02:15 NNW 5 16.09 Clear CLR -3 -5     82% -5   1027.1        
Jan 21 01:55 NNW 5 16.09 Clear CLR -2 -5     80% -4   1027.1        
Jan 21 01:35 NNW 8 16.09 Clear CLR -2 -5     79% -4   1026.8        
Jan 21 01:15 N 13 16.09 Clear CLR -1 -5     78% -6   1026.4        
Jan 21 00:55 N 13 16.09 Clear CLR -1 -5     78% -5   1026.1        
Jan 21 00:35 N 11 16.09 Clear CLR -2 -4     84% -6   1026.4        
Jan 21 00:15 NNW 9 16.09 Clear CLR -2 -5     81% -5   1026.4        
Jan 20 23:55 NNW 9 16.09 Clear CLR -2 -5     80% -5   1026.4        
Jan 20 23:35 NNW 8 16.09 Clear CLR -1 -5     79% -4   1026.1        
Jan 20 23:15 NW 8 16.09 Clear CLR -1 -5     78% -4   1026.1        
Jan 20 22:55 NNW 8 16.09 Clear CLR -1 -4     79% -4   1026.4        
Jan 20 22:35 NNW 9 16.09 Clear CLR -1 -4     81% -5   1026.1        
Jan 20 22:15 NW 9 16.09 Clear CLR -1 -5     78% -5   1026.1        
Jan 20 21:55 WNW 9 16.09 Clear CLR -1 -5     77% -4   1026.1        
Jan 20 21:35 WNW 9 16.09 Clear CLR -1 -5     77% -4   1025.7        
Jan 20 21:15 NW 9 16.09 Clear CLR -1 -4     77% -4   1025.7        
Jan 20 20:55 NW 11 16.09 Clear CLR -1 -4     77% -4   1025.7        
Jan 20 20:35 NNW 9 16.09 Clear CLR 0 -4     76% -3   1025.7        
Jan 20 20:15 NNW 11 16.09 Clear CLR 0 -4     76% -4   1025.7        
Jan 20 19:55 NNW 9 16.09 Clear CLR 0 -4     77% -3   1025.7        
Jan 20 19:35 NW 9 16.09 Clear CLR 0 -4     77% -3   1025.4        
Jan 20 19:15 NNW 9 16.09 Clear CLR 0 -3     83% -3   1025.1        
Jan 20 18:55 NNW 8 16.09 Clear CLR 0 -3     82% -3   1025.1        
Jan 20 18:35 NW 8 16.09 Clear CLR -1 -6     65% -3   1025.1        
Jan 20 18:15 NW 5 16.09 Clear CLR 0 -6     64% -2   1024.7        
Jan 20 17:55 Calm 16.09 Clear CLR 1 -5     65%     1024.4        
Jan 20 17:35 N 5 16.09 Clear CLR 2 -4     65% 0   1024.4        
Jan 20 17:15 N 9 16.09 Clear CLR 2 -4     64% -1   1024.1        
Jan 20 16:55 NNW 15 16.09 Clear CLR 3 -4     60% -1   1024.1        
Jan 20 16:40 NNW 21 16.09 Clear CLR 3 -4     60% -2   1024.1        
Jan 20 15:55 NW 18 16.09 Clear CLR 3 -4     61% -1   1023.4        
Jan 20 15:35 NNW 21 16.09 Partly Cloudy SCT030 3 -4     60% -1   1023.4        
Jan 20 15:10 NNW 21 16.09 Mostly Cloudy BKN028 4 -3     61% 0   1023        
Jan 20 14:55 NW 21 16.09 Cloudy OVC028 4 -3     65% -1   1023        
Jan 20 14:35 NW 17 16.09 Cloudy OVC028 3 -2     67% -1   1022.7        
Jan 20 14:15 N 26 16.09 Mostly Cloudy BKN028 3 -2     66% -2   1023        
Jan 20 13:55 NW 22 16.09 Cloudy OVC026 3 -2     69% -1   1022.7        
Jan 20 13:35 NW 22 16.09 Cloudy OVC026 3 -3     67% -2   1022.4        
Jan 20 13:15 NW 22 16.09 Cloudy OVC026 3 -3     66% -2   1022.4        
Jan 20 12:55 NNW 28 16.09 Cloudy OVC026 2 -2     71% -3   1022.7        
Jan 20 12:35 NNW 24 16.09 Cloudy OVC026 2 -3     69% -3   1022.7        
Jan 20 12:15 NNW 22 16.09 Cloudy OVC026 2 -3     70% -3   1022.7        
Jan 20 11:55 NW 28 16.09 Cloudy OVC026 2 -3     72% -4   1022.7        
Jan 20 11:35 N 24 16.09 Cloudy OVC026 2 -3     70% -3   1023.4        
Jan 20 11:15 NNW 26 16.09 Cloudy OVC026 2 -3     70% -4   1023.4        
Jan 20 10:55 N 26 16.09 Cloudy OVC026 2 -3     71% -4   1023.4        
Jan 20 10:35 NNW 28 16.09 Cloudy OVC024 2 -3     74% -4   1023.4        
Jan 20 10:15 NNW 28 16.09 Cloudy OVC024 1 -3     75% -5   1023.4        
Jan 20 09:55 NNW 22 16.09 Cloudy OVC024 1 -2     77% -4   1023.4        
Jan 20 09:35 NNW 28 16.09 Cloudy OVC022 1 -3     77% -5   1022.7        
Jan 20 09:15 NNW 21 16.09 Cloudy OVC024 1 -3     76% -4   1022.7        
Jan 20 08:55 NNW 28 16.09 Cloudy OVC022 1 -3     77% -5   1022.4        
Jan 20 08:35   16.09 Cloudy OVC022 1 -3     76%     1021.7        
Jan 20 08:15 NNW 33 16.09 Cloudy and Windy OVC022 1 -3     78% -6   1021.3        
Jan 20 07:55 NNW 30 16.09 Cloudy OVC020 1 -3     79% -5   1020.7        
Jan 20 07:35 NW 24 16.09 Cloudy OVC020 1 -2     80% -5   1020.3        
Jan 20 07:10 NNW 21 16.09 Cloudy OVC020 1 -2     80% -4   1020        
Jan 20 06:55 NNW 28 16.09 Cloudy OVC020 1 -2     79% -5   1020        
Jan 20 06:30 NNW 33 16.09 Cloudy and Windy OVC022 1 -2     79% -5   1019.3        
Jan 20 06:15 NNW 35 16.09 Cloudy and Windy OVC022 1 -2     79% -6   1019        
Jan 20 05:55   16.09 Cloudy OVC022 1 -3     77%     1018.3        
Jan 20 05:35   16.09 Cloudy OVC022 1 -2     77%     1018        
Jan 20 05:15 NNW 32 16.09 Cloudy and Windy OVC022 1 -2     78% -5   1017.3        
Jan 20 04:55 NNW 26 16.09 Cloudy OVC026 1 -2     77% -4   1016.9        
Jan 20 04:35 NW 21 16.09 Cloudy OVC024 1 -2     77% -4   1016.3        
Jan 20 04:15 NW 26 16.09 Cloudy OVC026 1 -2     76% -4   1015.9        
Jan 20 03:55 NW 22 16.09 Cloudy OVC026 1 -3     76% -4   1015.9        
Jan 20 03:30 NNW 28 16.09 Cloudy OVC026 1 -3     76% -5   1015.9        
Jan 20 03:15 NNW 35 16.09 Cloudy and Windy OVC028 2 -3     73% -5   1015.9        
Jan 20 02:55   16.09 Cloudy OVC028 2 -3     73%     1015.6        
Jan 20 02:30 NW 33 16.09 Cloudy and Windy OVC028 2 -3     73% -5   1015.2        
Jan 20 02:15 NW 37 16.09 Cloudy and Windy OVC028 2 -2     74% -5   1015.2        
Jan 20 01:55   16.09 Cloudy OVC024 2 -2     76%     1014.6        
Jan 20 01:35   16.09 Cloudy BKN024 OVC031 2 -2     77%     1014.2        
Jan 20 01:15 NW 39 16.09 Cloudy and Windy SCT017 BKN026 OVC032 2 0     87% -5   1014.2        
Jan 20 00:55 NW 30 16.09 Light Rain BKN017 BKN022 OVC028 2 0     87% -4   1013.9        
Jan 20 00:35 NW 22 16.09 Cloudy BKN021 OVC030 3 0     84% -2   1013.2        
Jan 20 00:15 NW 33 16.09 Cloudy and Windy BKN021 BKN025 OVC035 3 0     83% -3   1012.9        
Jan 19 23:55 NNW 26 16.09 Rain SCT016 OVC021 3 0     82% -2   1012.9        
Jan 19 23:35 NW 26 16.09 Cloudy SCT021 BKN027 OVC037 4 0     78% -1   1012.5        
Jan 19 23:10 NW 32 16.09 Cloudy and Windy SCT031 OVC037 4 1     78% -1   1011.9        
Jan 19 22:55 NW 33 16.09 Cloudy and Windy SCT024 OVC035 4 1     76% -1   1011.5        
Jan 19 22:40 NW 32 16.09 Mostly Cloudy and Windy BKN022 5 1     78% -1   1011.2        
Jan 19 22:15 WNW 33 16.09 Cloudy and Windy OVC022 6 2     78% 1   1010.5        
Jan 19 21:30 NW 35 16.09 Cloudy and Windy SCT014 BKN022 OVC041 7 3     78% 2   1009.5        
Jan 19 21:10   16.09 Cloudy BKN014 OVC020 7 5     88%     1008.8        
Jan 19 21:00 NW 37 11.27 Cloudy and Windy OVC014 7 5     88% 2   1008.5        
Jan 19 20:30   16.09 Cloudy OVC021 9 5     78%     1007.8        
Jan 19 20:10   16.09 Cloudy BKN023 BKN031 OVC060 10 6     78%     1007.1        
Jan 19 19:50 WNW 33 16.09 Cloudy and Windy BKN023 BKN028 OVC060 10 7     79%     1006.8        
Jan 19 19:30 WNW 33 16.09 Cloudy and Windy BKN022 OVC027 11 7     79%     1006.4        
Jan 19 19:10 WNW 33 16.09 Cloudy and Windy BKN020 BKN025 OVC032 12 8     81%     1005.8        
Jan 19 18:55 WNW 30 16.09 Cloudy SCT020 OVC031 12 9     81%     1005.4        
Jan 19 18:35 WNW 28 16.09 Cloudy BKN029 OVC060 13 10     81%     1004.8        
Jan 19 18:10   16.09 Cloudy SCT016 BKN050 OVC065 13 10     81%     1004.1        
Jan 19 17:55   16.09 Cloudy SCT014 SCT021 OVC027 14 11     83%     1003.7       1
Jan 19 17:35 SW 11 16.09 Cloudy SCT025 BKN034 OVC065 14 14     97%     1002.7        
Jan 19 17:15 SW 9 16.09 Mostly Cloudy BKN070 14 14     95%     1002.4        
Jan 19 16:55 WSW 11 16.09 Partly Cloudy SCT070 14 13     93%     1002        
Jan 19 16:35 WSW 15 16.09 Clear CLR 15 14     91%     1002        
Jan 19 16:15 WSW 13 16.09 Partly Cloudy SCT015 SCT024 15 13     90%     1001.7        
Jan 19 15:55 W 22 16.09 Mostly Cloudy SCT010 BKN015 BKN024 15 14     91%     1001.7        
Jan 19 15:35 WSW 15 16.09 Mostly Cloudy SCT012 BKN095 15 14     95%     1001.7        
Jan 19 15:15 SSW 15 16.09 Cloudy SCT012 SCT065 OVC095 14 14     99%     1002.7        
Jan 19 14:55 SW 13 16.09 Cloudy SCT010 BKN049 OVC095 14 14     100%     1001.7   0 1  
Jan 19 14:35 SW 15 6.44 Rain SCT011 BKN035 OVC055 14 14     100%     1002   0    
Jan 19 14:15 Calm 16.09 Light Rain SCT009 BKN050 OVC065 14 14     100%     1001.7   0    
Jan 19 13:55 Calm 11.27 Rain SCT016 BKN043 OVC050 14 14     100%     1002   0    
Jan 19 13:35 SW 8 11.27 Light Rain SCT024 BKN050 OVC070 14 14     100%     1002.7   0    
Jan 19 13:15 W 11 11.27 Light Rain SCT014 BKN034 OVC080 14 14     99%     1002.7   0    
Jan 19 12:55   6.44 Heavy Rain SCT016 BKN029 OVC075 16 13     87%     1003.7   1    
Jan 19 12:35 S 24 8.05 Rain SCT026 BKN075 OVC100 18 18     99%     1002.7   0    
Jan 19 12:15 S 26 16.09 Light Rain SCT031 SCT055 OVC100 18 18     98%     1003.4   0    
Jan 19 11:35 S 22 16.09 Light Rain SCT016 BKN080 OVC100 18 18     98%     1004.1   0    
Jan 19 11:15   16.09 Light Rain SCT014 BKN030 OVC100 18 18     99%     1004.8        
Jan 19 10:55   16.09 Light Drizzle BKN014 BKN023 OVC044 18 18     99%     1005.4   0    
Jan 19 10:30 S 35 6.44 Heavy Rain SCT014 BKN018 OVC034 19 18     94%     1006.8   0    
Jan 19 10:15 S 32 16.09 Cloudy and Windy BKN014 OVC019 19 18     93%     1007.1        
Jan 19 09:55   16.09 Cloudy BKN014 OVC020 19 18     95%     1007.5   0    
Jan 19 09:35 SSW 28 16.09 Cloudy BKN014 OVC022 18 18     98%     1007.8   0    
Jan 19 09:15 SSW 26 16.09 Cloudy BKN012 BKN032 OVC060 18 18     100%     1007.8   0    
Jan 19 08:50 S 28 16.09 Light Rain BKN010 BKN034 OVC095 17 17     100%     1007.8     0  
Jan 19 08:35 S 22 16.09 Rain BKN012 OVC016 17 17     100%     1008.1        
Jan 19 08:15 S 21 16.09 Light Drizzle OVC014 17 17     100%     1008.5        
Jan 19 07:55 S 22 16.09 Cloudy OVC012 16 16     100%     1008.5        
Jan 19 07:35 S 21 16.09 Cloudy OVC010 16 16     100%     1008.8        
Jan 19 07:15 S 13 16.09 Rain BKN010 OVC016 16 16     100%     1008.8        
Jan 19 06:55 SSE 9 11.27 Rain OVC008 15 15     100%     1009.2   0    
Jan 19 06:35 SSE 11 16.09 Cloudy OVC006 15 15     100%     1008.8        
Jan 19 06:15 SSE 9 11.27 Cloudy OVC006 15 15     100%     1009.2        
Jan 19 05:55 S 11 11.27 Cloudy OVC004 15 15     100%     1009.5        
Jan 19 05:35 SSE 13 8.05 Fog/Mist OVC002 15 15     100%     1009.2        
Jan 19 05:15 SSE 11 4.83 Fog/Mist OVC002 14 14     100%     1009.5        
Jan 19 04:55 S 15 2.82 Fog/Mist OVC002 14 14     100%     1009.5        
Jan 19 04:35 S 21 3.22 Fog/Mist OVC004 14 14     100%     1009.8        
Jan 19 04:15 S 18 6.44 Fog/Mist OVC004 14 14     100%     1010.2        
Jan 19 03:55 SSE 15 11.27 Cloudy OVC004 14 14     100%     1010.5        
Jan 19 03:35 S 18 11.27 Cloudy OVC006 14 14     100%     1010.8        
Jan 19 03:15 S 21 11.27 Cloudy OVC006 13 13     100%     1011.2        
Jan 19 02:55 S 22 11.27 Light Rain OVC006 13 13     100%     1011.5        
Jan 19 02:35 S 17 11.27 Cloudy OVC008 13 13     100%     1011.9        
Jan 19 02:15 SE 11 11.27 Cloudy OVC010 13 13     100%     1012.2        
Jan 19 01:55 SE 9 11.27 Cloudy OVC012 13 13     100%     1012.9        
Jan 19 01:35 SSE 9 11.27 Cloudy BKN016 OVC025 13 13     100%     1013.2        
Jan 19 01:15 S 11 11.27 Mostly Cloudy SCT019 BKN031 BKN048 12 12     100%     1013.6        
Jan 19 00:55 SSE 11 11.27 Mostly Cloudy SCT034 BKN060 12 12     98%     1013.9        
Jan 19 00:35 S 15 16.09 Mostly Cloudy SCT042 SCT050 BKN060 12 12     98%     1013.9        
Jan 19 00:15 SSE 8 16.09 Mostly Cloudy SCT043 BKN050 BKN060 12 12     98%     1014.2        
Jan 18 23:55 SE 8 16.09 Mostly Cloudy BKN050 BKN060 12 11     97%     1014.2        
Jan 18 23:35 ESE 8 16.09 Partly Cloudy SCT050 SCT060 11 11     97%     1014.9        
Jan 18 23:15 SSE 9 16.09 Clear CLR 11 10     94%     1015.2        
Jan 18 22:55 E 5 16.09 Clear CLR 11 10     95%     1014.9        
Jan 18 22:35 SE 5 16.09 Clear CLR 11 10     95%     1014.9        
Jan 18 22:15 ESE 8 16.09 Partly Cloudy SCT019 SCT031 11 10     92%     1014.9        
Notice The following observation data may not be complete
May 15 12:15   16.09 Partly Cloudy SCT075          %              
May 15 07:35 ESE 8 16.09 Clear CLR 22 19     83%   22 1014.6        
May 15 04:35 E 5 16.09 Clear   20 19     93%     1013.9        
May 15 00:35   16.09 Clear CLR 22 19     82%   23 1013.2        
May 14 23:55 SSE 5 16.09 Clear CLR 23 19     76%   24 1013.6        
May 13 20:35 Calm 16.09 Clear CLR 25 19     68%   26 1016.3        
May 13 15:35 NNW 5 16.09 Partly Cloudy SCT070 33 16     36%   33 1016.9        
May 13 15:15 W 11 16.09 Clear CLR 33 16     36%   33 1017.3        
May 13 14:35 N 9 16.09 Clear CLR 33 16     35%   33 1018        
May 13 08:15 NNW 9 16.09 Clear CLR 25 18     67%   25 1020        
May 13 06:15 Calm 16.09 Clear CLR 16 16     99%     1019.3        
May 13 04:55 Calm 16.09 Clear CLR 16 16     100%     1018        
May 12 21:35 Calm 16.09 Clear CLR 22 15     65%   22 1018.6        
May 12 17:15 SE 5 16.09 Clear CLR 32 12     30%   31 1018        
May 12 15:55 SSE 15 16.09 Clear   32 12     29%   31 1018.6        
May 12 05:35 Calm 16.09 Clear CLR 14 14     99%     1020        
May 12 01:55 Calm 16.09 Clear CLR 17 16     97%     1018.3        
Notice The following observation data may not be complete
May 12 00:35   16.09 Clear CLR          %              
May 11 23:55 SSW 13 16.09 Clear CLR 19 16     84%     1019        
May 11 22:15 Calm 16.09 Clear CLR 21 17     78%     1018.6        
Notice The following observation data may not be complete
May 11 11:15   16.09 Clear CLR          %              
Jun 11 22:55   16.09 Clear CLR 23 23     100%   24 1019.7        
Notice The following observation data may not be complete
Jun 11 18:15   11.27 Light Rain SCT046 SCT065 OVC110          %         0    
Notice The following observation data may not be complete
Jun 11 17:35   16.09 Light Rain SCT027 SCT032 OVC048   22      %     1018.3        
Jun 11 16:55 ESE 11 16.09 Mostly Cloudy BKN048 BKN055 31 21     55%   35 1017.3        
Jun 11 15:15 E 11 16.09 Partly Cloudy SCT050 31 20     52%   34 1018.3        
Notice The following observation data may not be complete
Jun 11 14:35   16.09 Mostly Cloudy BKN050          %              
Jun 11 10:15 SSE 17 16.09 Clear CLR 28 19     60%   29 1020.3        
Jun 10 10:15 SSE 5 16.09 Clear CLR 27 19     64%   28 1018        
Jun 10 08:55   0.4 Cloudy OVC080 24 20     76%   25 1018        
Jun 10 08:35 Calm 0.4 Cloudy OVC080 23 20     81%   24 1017.6        
Jun 10 03:55 Calm 16.09 Partly Cloudy SCT075 18 18     100%     1015.2        
Jun 10 02:35 Calm 16.09 Cloudy SCT065 OVC075 18 18     100%     1015.2        
Jun 10 01:55 S 11 16.09 Cloudy OVC075 18 18     97%     1015.2        
Notice The following observation data may not be complete
Jun 09 23:35   16.09 Clear CLR          %              
Notice The following observation data may not be complete
Jun 09 20:35   16.09 Clear CLR          %              
Jun 09 16:15 Calm 16.09 Clear CLR 28 14     43%   28 1013.2        
Jun 09 11:35   16.09 Clear CLR 26 15     51%   26 1015.2        
Jun 09 03:35 Calm 16.09 Clear CLR 15 15     97%     1012.2        
Jun 09 02:55 WNW 5 16.09 Clear   16 15     99%     1012.5        
Jun 09 02:35 Calm 16.09 Clear CLR 16 15     97%     1012.5        
Jun 09 00:15 NNW 9 16.09 Clear CLR 18 15     83%     1012.9        
Jun 08 23:55 NNW 5 16.09 Clear CLR 18 16     85%     1012.9        
Jun 08 16:50 NW 9 16.09 Clear CLR 27 14     45%   26 1011.2        
Jun 08 13:30 WNW 18 16.09 Partly Cloudy SCT050 26 15     50%   26 1012.5        
Jun 08 07:55 N 5 16.09 Clear   19 14     71%     1013.2        
Jun 08 03:15 N 9 16.09 Clear CLR 18 13     73%     1010.5        
Jun 07 17:50   16.09 Clear CLR 28 15     47%   28 1008.8        
Jun 07 08:15 N 11 16.09 Clear CLR 22 18     78%   22 1008.8        
Jun 06 14:55 NE 5 16.09 Rain SCT005 BKN047 OVC070 21 21     99%   22 1006.4   2    
Jun 06 09:15   16.09 Cloudy OVC005 24 23     94%   25 1008.1        
Jun 05 19:35 SSE 8 16.09 Light Rain SCT050 SCT065 BKN095 21 21     99%     1008.1   0